Tracking 35275 objects as of 8-Sep-2026
HD Live streaming from Space Station
objects crossing your sky now

OBJECT D

Track OBJECT D now!
10-day predictions


NORAD ID: 63985
Int'l Code: 2025-100D
Launch date: May 14, 2025
Source: People's Republic of China (PRC)
Launch site: Jiuquan Satellite Launch Center, China (JSC)
Your satellite tracking list
Your tracking list is empty




NASA's NSSDC Master Catalog

Two Line Element Set (TLE):
1 63985U 25100D   26251.50879767  .00017565  00000-0  69855-3 0  9994
2 63985  97.3612 326.7266 0006004  10.7922 349.3444 15.25327795 73573
Source of the keplerian elements: AFSPC